RH
98 100 99 99 99 91 87 82 49 18 16 22 21 13 12 25 77 81 60 61 60 72 70 67 69 69 70 66 63 54 51 52 51 52 49 46 42 38 40 42 39 31 29 25 22 22 19 24 26 25 24 22 21 21
100 100 100 97 97 100 100 98 95 96 95 87 62 68 87 81 90 88 60 62 65 62 70 73 72 73 70 68 63 56 54 51 43 46 49 49 46 45 43 42 41 32 29 26 24 26 28 31 30 28 26 24 22 21
100 100 100 100 95 97 86 92 99 100 89 96 95 91 89 91 100 97 90 84 76 69 64 67 77 78 75 72 65 64 61 57 54 47 44 41 37 36 35 38 41 40 36 31 31 35 33 37 35 33 32 28 26 26
100 100 100 100 100 98 97 99 90 84 97 100 87 76 80 92 98 100 98 87 78 75 71 77 72 80 79 77 72 72 71 63 60 57 54 51 48 41 40 39 53 48 42 37 34 40 38 39 37 36 32 31 29 29
100 100 100 100 100 95 95 96 95 88 84 88 95 78 79 93 89 98 92 86 89 89 81 91 88 88 87 88 80 78 78 72 67 62 61 61 58 49 42 42 64 58 49 39 39 44 42 40 36 36 34 31 31 29
100 100 100 99 98 92 96 97 99 96 92 84 92 97 84 93 96 98 94 87 88 99 91 94 97 99 98 98 100 97 92 89 83 77 74 69 69 59 44 46 66 56 49 45 47 45 43 39 38 36 35 35 33 31
100 100 100 97 92 88 89 97 100 99 98 95 87 99 100 99 100 100 96 98 96 92 97 91 89 98 97 99 98 97 96 96 91 85 82 81 79 69 55 62 73 60 52 53 50 47 46 45 43 41 40 38 35 32
100 100 96 96 98 98 100 97 98 100 99 99 100 100 100 100 100 97 100 100 100 95 92 85 81 95 100 98 100 98 98 96 94 88 88 90 75 73 63 80 68 58 51 50 50 49 48 47 46 45 44 37 33 29
100 100 100 100 95 89 92 87 97 100 100 99 100 100 100 100 100 99 100 97 96 97 85 72 74 87 93 98 98 98 97 95 87 83 81 74 64 67 75 73 70 62 54 50 49 48 49 52 51 50 44 40 36 31
89 100 100 100 100 100 100 94 94 100 99 100 99 100 99 100 100 100 99 98 94 96 81 71 79 84 93 96 100 99 98 98 88 81 78 66 59 84 86 70 72 64 57 56 54 53 54 56 57 54 47 46 41 40
77 60 78 92 99 100 100 100 100 98 96 98 100 98 98 100 100 99 99 94 90 83 75 72 77 86 92 94 99 100 96 93 84 73 72 57 53 91 79 65 61 56 56 57 59 61 62 63 64 58 57 53 52 47
10 22 31 23 39 60 87 100 100 100 100 100 100 100 99 100 100 98 90 94 82 76 70 71 79 84 85 93 99 100 100 97 75 63 57 48 69 77 71 64 56 54 58 64 70 72 70 73 74 74 71 67 58 47
5 7 8 8 8 9 16 40 71 88 100 100 100 100 97 92 90 80 71 70 73 70 68 78 88 100 100 100 100 100 99 89 79 64 52 52 82 77 67 58 55 61 69 81 82 83 93 100 99 93 90 61 53 61
8 6 5 6 7 7 7 7 9 24 51 69 86 96 94 78 72 65 62 66 72 74 78 77 79 88 93 98 99 97 96 88 73 62 60 66 60 59 56 49 50 61 87 99 100 100 100 100 100 100 88 60 50 61
12 9 8 6 5 5 5 6 6 6 6 9 24 47 66 71 70 66 67 70 75 74 64 63 67 71 74 76 78 76 75 74 65 57 44 36 32 30 26 23 38 92 100 100 100 96 94 100 100 100 78 39 44 78
13 12 11 11 9 7 6 5 5 5 6 6 6 10 13 20 30 35 38 38 37 36 32 25 21 18 23 25 26 26 30 35 27 19 14 13 11 10 9 10 12 25 64 75 73 98 100 93 41 19 26 50 93 100
12 12 12 11 10 10 10 10 8 6 5 5 5 5 5 6 6 6 7 10 15 16 13 10 8 14 56 88 46 17 15 13 9 8 7 6 6 6 6 7 8 17 42 66 100 100 88 14 6 18 96 100 100 100
17 16 13 12 12 11 11 11 10 9 6 4 4 4 4 5 5 5 6 6 6 6 6 7 7 7 9 11 15 14 7 6 6 6 5 5 5 5 8 19 50 75 100 70 46 60 24 8 37 100 94 93 100 100
57 35 30 31 35 24 19 19 16 10 7 7 6 6 6 4 4 5 5 5 6 7 8 7 9 8 8 7 6 6 6 7 8 8 11 16 14 43 92 100 99 96 77 22 26 41 61 67 66 69 75 99 100 100
67 85 84 84 97 100 73 24 20 11 7 7 8 8 8 8 8 6 6 6 7 9 10 8 5 5 6 6 7 7 7 8 10 16 26 71 100 100 73 20 58 75 41 32 60 97 100 79 71 59 31 30 70 96
100 100 100 100 100 100 96 53 26 19 14 11 10 12 14 12 10 10 11 11 14 7 5 5 5 5 5 6 7 10 10 11 10 13 10 16 86 99 27 81 100 76 79 100 100 100 100 100 96 31 23 89 98 97
100 100 100 100 99 83 83 88 69 58 44 32 34 32 18 17 20 27 46 38 14 10 8 7 6 7 10 12 8 7 8 8 8 9 9 9 10 33 58 100 100 86 76 100 100 100 99 63 27 65 96 100 98 80
100 99 99 100 100 100 91 98 90 82 83 81 93 84 75 78 82 86 58 41 22 17 18 13 10 8 9 10 9 9 8 7 8 8 8 8 8 10 12 34 40 46 90 100 100 100 62 48 79 94 92 86 78 63
99 100 100 100 100 95 99 100 100 100 99 100 100 100 100 100 100 97 58 42 30 25 18 18 30 60 81 90 81 68 44 26 20 18 21 24 26 22 21 22 34 57 78 94 56 46 84 100 98 98 84 58 44 27
100 100 100 100 100 100 100 100 100 100 100 100 100 100 100 100 94 68 43 80 98 100 100 100 100 100 100 100 100 93 83 87 95 91 73 73 67 55 69 98 90 68 47 82 100 100 98 95 77 48 31 20 17 20
100 100 100 100 100 100 100 100 100 100 100 100 100 100 100 100 100 100 100 100 100 100 100 90 83 94 100 100 100 100 98 96 98 100 100 95 68 33 44 70 97 100 100 98 94 84 58 36 22 17 21 26 30 35
100 100 100 100 100 100 100 100 100 100 100 100 98 100 100 100 100 100 100 100 98 99 100 100 100 100 100 100 100 100 100 100 100 97 99 100 100 100 100 100 100 92 86 69 50 32 20 19 24 30 35 43 52 55
100 100 100 100 100 99 96 84 80 94 100 100 100 100 89 85 88 90 98 100 100 100 100 100 100 100 100 100 100 100 100 100 100 100 100 100 100 94 82 64 44 27 19 17 19 24 28 35 43 50 54 59 63 63
99 100 98 99 80 76 66 60 66 87 94 100 100 100 99 93 90 94 100 100 100 100 100 100 100 100 100 100 100 100 100 99 91 73 62 50 44 30 20 17 18 22 27 34 39 44 50 54 57 59 59 55 47 44
46 57 82 100 96 80 80 80 79 89 99 100 100 98 98 100 100 100 100 100 100 100 100 100 100 100 100 95 81 69 52 31 21 18 18 22 25 29 32 36 41 45 48 51 54 56 56 51 46 39 38 35 30 28
32 27 30 31 48 93 100 100 100 100 100 100 100 100 100 100 100 100 100 100 100 100 97 90 62 41 30 22 23 27 30 30 32 33 35 40 45 51 56 57 56 55 54 46 40 38 37 37 38 40 38 31 28 45
20 19 18 17 18 19 22 34 60 81 93 96 97 100 98 92 75 71 62 55 48 34 29 29 32 42 43 43 43 43 46 50 48 52 59 61 60 60 57 47 37 32 29 30 31 32 33 36 39 34 28 35 45 43
21 18 16 15 16 17 19 21 22 23 25 26 28 29 29 30 28 29 30 32 36 43 54 56 56 51 44 40 48 63 61 58 60 61 58 49 35 28 26 27 26 25 24 24 24 25 27 27 27 36 44 40 54 76
Wind_Speed
63 63 63 65 70 70 69 65 58 53 50 50 50 45 41 40 37 34 33 31 28 29 29 28 26 25 22 20 18 16 15 15 14 12 10 9 9 9 9 9 9 11 12 14 17 20 20 22 26 30 34 37 39 41
58 62 60 62 61 63 66 67 63 63 59 57 56 45 49 43 39 37 37 35 34 32 34 34 33 32 29 26 25 22 19 19 20 19 16 13 12 14 16 13 16 16 19 20 22 22 27 30 33 36 39 43 46 49
53 54 54 57 59 60 64 63 65 65 62 59 57 55 51 47 42 41 41 39 40 38 40 39 38 36 35 32 29 28 25 23 23 23 23 22 22 23 23 21 21 22 27 29 28 28 35 35 40 43 46 48 50 52
59 55 54 53 53 56 61 65 65 64 62 62 59 56 54 50 46 45 44 42 39 39 42 44 44 42 39 37 35 33 31 29 28 28 27 28 29 29 29 29 22 27 30 36 34 33 40 41 44 47 47 48 50 52
61 60 57 54 51 52 55 60 61 63 62 61 59 58 56 51 49 46 46 44 42 40 42 44 46 46 44 42 39 37 35 34 32 32 32 32 31 35 35 34 22 30 34 40 39 42 45 47 47 46 48 52 52 56
59 61 57 55 54 51 53 55 55 59 62 62 60 55 55 55 52 48 48 49 44 44 44 44 45 45 47 45 43 43 43 41 40 39 38 36 33 38 41 37 22 34 41 43 41 46 49 50 50 51 52 53 54 56
55 55 56 54 55 54 54 55 53 51 54 56 60 58 53 55 53 52 52 50 49 48 46 46 45 46 44 44 44 45 46 46 45 44 40 38 38 41 41 37 36 43 45 42 45 47 47 47 48 49 50 49 49 49
52 56 53 51 52 54 56 55 53 50 49 51 53 55 55 53 51 53 50 49 47 48 48 49 46 42 44 48 46 45 44 44 43 43 42 40 42 43 38 33 41 45 50 45 46 48 50 50 49 48 47 45 45 46
47 51 57 59 56 55 53 54 53 50 49 50 52 52 52 53 51 50 49 50 50 49 50 51 48 46 44 43 44 43 41 41 42 41 40 42 44 40 35 37 44 46 45 46 47 50 51 50 49 47 46 44 44 45
43 46 48 49 54 57 56 54 55 54 54 51 52 53 54 52 52 52 52 50 49 49 49 49 49 49 44 45 44 45 46 46 45 42 43 44 42 36 36 43 46 45 46 47 49 49 49 49 48 47 45 44 43 44
45 45 46 48 49 50 51 53 57 60 58 56 57 56 55 54 53 52 51 49 48 47 46 46 45 44 44 45 48 49 48 48 47 47 49 49 46 34 38 44 50 51 49 48 48 48 48 48 47 46 45 44 44 46
49 49 48 48 48 50 49 51 53 54 58 58 57 58 59 57 57 57 55 54 51 49 49 48 46 46 45 46 50 52 50 49 52 54 55 55 43 43 45 47 52 51 48 47 46 45 45 46 46 46 45 44 46 46
47 49 49 49 49 50 51 52 52 52 52 54 55 57 58 59 60 59 57 56 53 52 51 51 50 50 50 53 55 51 52 56 56 56 56 55 41 46 49 51 45 43 43 42 41 43 45 45 45 47 45 44 45 46
44 46 48 49 49 49 52 53 54 55 55 55 55 55 56 57 59 57 55 55 52 51 52 56 57 55 51 51 55 55 55 57 58 59 56 46 45 45 49 47 44 44 42 41 42 44 43 44 46 47 42 43 48 51
39 43 45 46 49 50 53 54 55 55 56 57 59 58 57 58 58 59 58 58 57 55 54 52 56 57 56 54 55 57 58 61 60 54 46 44 42 41 44 46 43 41 41 43 43 45 44 45 48 50 55 57 52 52
39 40 42 45 47 49 51 54 56 57 58 59 58 56 55 56 55 56 57 57 56 56 55 53 53 54 56 56 56 55 55 55 49 44 44 43 43 44 45 47 43 46 51 51 49 42 45 48 51 50 49 50 50 48
40 41 43 44 45 47 49 51 54 56 58 57 51 51 51 52 53 54 55 58 59 60 59 55 54 53 47 45 53 53 54 51 49 49 48 47 46 48 47 46 45 45 44 40 41 45 49 48 47 47 46 47 50 50
36 38 40 41 42 44 46 48 52 55 54 50 50 51 54 54 54 55 54 55 56 59 60 62 62 61 60 58 55 57 56 54 53 52 52 51 51 50 48 46 40 41 40 44 44 46 47 45 43 42 47 49 46 47
22 25 27 29 29 35 39 41 46 51 48 47 47 52 53 55 56 56 57 59 62 61 63 65 66 62 58 58 59 59 58 56 54 54 53 50 50 43 39 39 43 46 47 45 45 39 41 42 44 46 51 54 55 55
13 14 16 21 20 27 32 39 42 48 47 45 46 48 49 51 52 54 54 57 58 60 62 62 59 58 59 59 59 59 58 56 54 52 50 44 44 44 49 46 43 40 40 43 40 40 45 44 46 51 54 56 58 58
12 15 16 18 22 28 31 31 35 37 39 42 41 42 43 45 46 48 49 51 53 57 58 56 56 58 59 60 60 59 56 55 54 53 52 51 54 56 51 45 45 41 38 38 42 48 49 51 56 57 53 52 52 53
17 20 23 26 29 30 29 28 29 28 31 29 26 28 33 37 39 40 39 43 51 48 48 48 51 53 54 53 54 56 56 55 53 51 52 51 48 47 47 51 46 45 47 48 48 51 52 55 53 50 50 51 53 57
20 23 23 22 23 27 29 28 29 25 25 22 21 20 19 21 22 25 36 39 41 38 36 34 35 37 40 42 44 45 47 48 48 49 49 47 46 48 50 51 53 55 54 52 52 54 53 49 48 49 51 54 57 58
21 16 13 13 19 25 26 28 29 31 30 25 21 21 18 18 19 26 29 23 18 18 19 18 18 19 22 25 29 31 36 39 40 42 41 39 40 41 43 45 47 48 51 52 51 48 46 47 49 52 54 55 56 55
5 6 7 7 6 7 8 8 8 9 9 10 12 13 13 16 20 18 14 17 17 17 17 21 25 27 30 32 33 36 38 41 42 41 39 39 39 41 41 43 43 46 42 40 42 44 46 50 52 51 50 49 46 45
1 2 4 7 8 11 11 12 12 11 10 13 17 16 16 12 16 17 13 14 13 11 11 11 14 17 21 25 28 30 31 36 41 43 44 44 42 37 36 36 37 38 39 42 45 48 49 47 46 44 43 43 44 45
4 2 2 4 9 12 7 10 11 9 11 10 10 15 17 13 14 14 12 9 9 11 13 17 21 25 27 27 25 25 24 24 24 25 27 29 30 31 33 36 39 42 45 47 48 47 44 42 41 42 43 43 42 41
12 5 5 5 8 9 10 12 11 6 6 7 8 7 7 9 10 11 8 9 13 14 15 15 17 19 19 20 20 19 20 21 23 26 29 32 36 38 40 42 43 43 43 41 40 40 40 41 42 41 40 39 39 39
17 15 7 6 6 6 9 13 13 9 6 8 9 10 11 11 11 12 12 13 14 14 16 16 15 16 17 19 21 24 26 29 32 34 37 39 41 41 40 39 38 38 38 39 41 42 41 39 39 39 39 37 35 34
9 11 11 7 1 5 6 8 8 8 9 9 9 9 8 6 5 7 8 8 9 10 13 15 17 20 23 26 29 31 32 31 30 31 30 32 34 36 37 39 40 41 41 40 40 40 39 35 33 31 30 29 27 25
10 10 9 7 4 3 6 6 6 6 7 7 7 7 7 7 7 8 9 10 12 14 17 19 21 22 23 23 23 25 27 28 30 31 34 36 37 38 38 39 40 40 40 38 37 35 33 31 29 26 24 21 18 13
15 15 14 13 11 9 7 8 7 7 7 8 8 8 9 10 12 13 16 17 18 19 18 17 16 16 18 20 22 24 27 30 32 34 35 35 38 40 40 38 37 37 36 35 32 29 26 21 17 14 14 9 5 4
20 19 18 15 14 14 12 11 11 12 13 13 13 13 14 14 13 14 14 13 12 11 11 12 15 18 21 22 25 29 30 30 30 32 34 34 33 31 29 27 26 24 21 18 14 11 8 6 5 2 3 4 5 1
Wind_Direction
234 231 232 231 234 230 230 232 236 242 246 252 255 255 252 258 256 253 252 254 257 253 251 250 252 255 258 261 257 255 254 255 254 257 261 268 274 280 285 303 312 319 317 317 323 326 320 326 321 320 320 321 321 322
234 233 230 229 230 235 239 240 239 243 244 245 251 258 259 252 250 251 251 253 254 255 254 251 253 256 258 259 258 256 259 264 263 263 267 271 280 291 291 303 310 313 308 307 307 317 313 315 314 316 317 314 315 317
227 226 228 231 232 234 236 238 242 246 247 249 251 251 251 247 250 249 254 256 256 257 254 253 253 253 255 257 257 258 262 266 269 268 267 270 276 281 287 293 297 302 303 302 305 313 306 312 311 312 312 314 316 318
222 222 226 229 234 238 239 238 241 242 245 246 245 243 245 244 244 250 255 257 258 258 254 248 248 249 251 255 258 257 261 265 268 271 271 273 275 279 281 284 298 295 296 294 303 307 302 308 307 309 311 313 316 316
219 224 227 230 233 240 240 240 238 241 244 244 244 244 242 244 245 247 252 255 255 257 256 250 250 249 249 252 255 257 261 263 266 270 273 274 279 280 281 287 308 293 293 294 302 300 302 303 306 307 310 314 315 316
222 227 228 231 234 241 242 240 241 240 242 242 242 243 241 242 243 245 246 251 254 252 255 252 251 251 250 251 254 255 257 260 262 265 269 275 280 279 281 288 295 291 292 296 301 301 302 303 303 306 310 311 312 313
224 227 231 231 236 239 239 239 239 240 241 241 242 240 241 241 246 250 248 247 251 254 252 252 253 253 254 255 257 258 260 261 264 267 269 273 279 281 283 298 288 289 292 298 299 299 299 300 303 306 306 306 305 306
220 225 226 228 229 229 231 235 236 236 239 240 240 237 239 238 237 241 242 242 245 249 251 251 251 254 255 254 255 258 260 262 266 269 273 276 277 281 289 285 287 288 291 298 297 298 299 301 302 301 301 298 300 303
214 220 225 227 230 231 231 233 236 236 236 235 233 234 235 232 236 242 245 245 247 250 251 252 255 253 255 259 259 261 266 271 271 275 277 277 278 286 285 285 283 288 294 295 295 297 299 299 298 297 294 296 298 301
222 221 220 223 227 231 233 233 235 239 238 237 238 239 238 240 241 242 245 247 248 251 251 254 255 257 258 260 262 265 268 271 273 275 276 278 282 288 286 287 289 292 292 292 292 293 294 294 292 290 289 293 296 299
229 226 225 226 227 229 231 233 235 237 240 242 243 243 242 242 241 242 246 248 251 253 255 257 259 262 261 264 267 269 274 277 277 275 276 279 286 285 284 286 289 289 287 287 287 289 290 289 287 286 287 290 293 297
233 232 231 230 230 231 234 234 235 236 238 240 241 243 244 244 244 245 249 255 258 262 264 262 263 266 267 266 267 271 274 274 275 278 281 284 290 286 288 288 287 289 288 285 284 284 285 283 282 283 284 288 294 295
234 234 234 234 234 235 234 234 236 237 238 239 241 243 243 246 249 251 256 259 261 268 267 265 263 263 264 267 268 268 268 270 274 279 283 289 290 287 288 288 287 283 280 278 280 280 279 277 277 279 283 292 292 291
240 238 236 238 238 238 239 238 237 239 239 240 240 240 243 246 250 254 258 260 259 257 255 257 260 259 258 259 263 267 268 270 274 280 286 286 285 282 283 281 279 278 277 277 277 278 279 281 282 280 290 295 293 291
242 243 242 240 240 240 240 241 241 240 240 241 241 241 244 246 250 253 254 254 256 257 257 257 257 259 259 259 259 263 267 270 277 281 283 280 277 274 273 272 270 270 270 271 275 278 282 284 284 285 293 295 291 288
246 244 245 244 242 242 242 243 243 242 242 243 244 246 247 248 248 251 253 254 255 256 258 257 257 258 260 261 263 264 266 272 277 278 276 274 272 270 271 271 271 268 268 273 284 278 276 280 284 287 290 288 287 287
252 250 248 246 245 244 245 245 245 245 244 245 249 249 249 248 247 248 249 251 252 253 253 252 253 253 257 265 266 262 266 269 269 269 267 267 268 268 270 271 272 272 274 273 270 271 278 285 286 286 288 290 291 290
254 251 250 249 247 246 245 246 247 247 247 246 244 247 247 246 244 243 244 246 248 249 250 250 249 248 246 249 254 261 263 264 265 265 265 266 269 271 275 275 273 268 263 277 277 279 286 285 282 280 280 284 285 289
248 244 242 241 247 246 244 241 247 249 248 245 243 242 243 244 243 242 240 242 242 243 245 247 249 251 256 259 260 260 262 264 266 267 269 273 272 269 256 258 265 268 276 277 274 279 284 285 285 287 286 286 292 295
232 242 239 223 214 238 248 243 243 245 244 242 240 241 242 243 242 243 242 243 245 246 246 248 253 256 256 256 258 260 262 264 266 266 269 265 255 255 270 282 274 274 275 278 270 263 269 281 290 295 294 293 292 298
238 237 234 233 237 244 251 256 251 251 249 244 240 242 242 241 243 244 245 248 250 249 250 252 251 251 253 255 256 259 259 260 261 262 265 265 260 265 277 271 271 270 270 274 273 269 274 281 289 295 296 296 296 294
248 250 254 252 252 252 252 255 257 257 256 254 250 247 244 241 242 244 248 249 250 253 254 254 253 253 253 256 258 259 262 264 265 264 264 266 268 267 267 264 269 268 271 274 276 279 283 290 295 294 293 292 295 299
256 251 258 261 254 246 247 245 252 258 259 260 261 258 242 240 240 240 244 248 253 257 258 257 257 257 258 258 258 259 260 263 264 266 267 268 270 268 268 268 271 270 269 275 279 284 290 291 290 289 292 296 300 304
279 282 271 237 234 244 247 252 256 255 261 266 266 268 262 258 242 236 243 251 239 230 234 232 231 234 238 243 248 250 250 253 257 263 268 271 271 270 269 270 270 271 273 279 284 285 285 287 290 294 299 302 304 307
222 219 174 164 120 129 131 141 152 165 160 185 190 201 215 225 224 222 185 167 166 179 198 214 224 231 236 239 247 249 250 250 255 259 263 266 271 273 274 277 276 279 280 280 281 284 288 293 296 300 303 304 305 305
266 138 135 123 131 121 109 80 76 88 132 158 167 163 165 165 172 157 161 182 196 211 217 233 247 253 260 265 267 268 266 262 260 262 266 272 276 276 274 274 275 276 279 284 289 294 296 299 301 302 302 302 302 302
30 103 49 148 159 168 145 110 133 131 122 127 150 163 162 174 181 180 193 208 231 246 256 258 264 269 272 274 274 273 270 270 269 268 269 271 273 274 276 281 286 290 293 295 296 297 297 298 299 300 301 301 301 303
52 102 131 140 151 158 159 161 173 175 148 141 161 164 174 193 203 212 232 273 279 266 267 269 270 269 268 265 265 268 273 277 281 283 286 287 290 291 293 294 295 295 293 292 294 296 296 297 298 299 299 299 299 299
41 51 84 134 146 156 166 179 180 181 172 171 184 195 206 221 234 246 257 259 255 253 261 268 270 272 276 282 287 291 295 297 299 300 299 298 297 296 295 293 292 293 294 295 294 294 295 296 296 296 295 296 296 296
38 39 45 59 122 224 207 209 228 242 240 233 227 231 236 231 229 231 231 235 245 255 263 273 282 289 295 298 300 300 300 299 295 292 291 292 293 293 294 295 294 294 294 294 293 292 292 291 290 292 294 296 297 296
310 323 332 344 338 219 186 178 177 178 177 185 200 210 203 209 224 241 256 266 275 284 291 297 300 299 298 296 297 298 301 302 302 301 300 298 297 296 296 297 298 297 296 294 292 292 291 289 289 291 292 293 296 288
287 290 292 293 288 276 262 253 252 251 251 256 261 263 268 274 284 290 296 296 294 292 289 287 288 293 296 299 301 301 302 303 303 303 303 303 303 302 301 299 297 295 292 291 290 288 287 286 286 282 287 281 272 280
270 274 279 277 267 261 258 260 259 260 261 267 272 277 279 279 278 279 275 271 271 274 279 288 294 299 303 305 309 313 312 309 307 305 304 305 305 304 305 305 304 303 303 301 297 292 286 281 273 204 152 130 122 30